Regional Weather Roundup
Issued by NWS Grand Forks, ND

Home | Current Version | Previous Version | Text Only | Print | Product List | Glossary Off
Versions: 1 2 3 4 5 6 7 8 9 10 11 12 13 14 15 16 17 18 19 20 21 22 23 24 25 26 27 28 29 30 31 32 33 34 35 36 37 38 39 40 41 42 43 44 45 46 47 48 49 50

000
ASUS43 KFGF 261610
RWRFGF
PRAIRIE TO PINES  WEATHER ROUNDUP
NATIONAL WEATHER SERVICE EASTERN NORTH DAKOTA/GRAND FORKS ND
1100 AM CDT SAT MAY 26 2018

 **SATELLITE DATA USED TO AUGMENT SKY COVER AT AUTOMATED STATIONS**
 *****  WEATHER ACROSS EASTERN NORTH DAKOTA  *****

CITY           SKY/WX    TMP DP  RH WIND       PRES   REMARKS
GRAND FORKS    FAIR      81  57  43 NW18G28   29.67S
GRAND FRKS AFB FAIR      82  56  40 NW17G23   29.69S
GRAND FRKS NWS   N/A     82  57  42 NW18      29.66R
DEVILS LAKE    FAIR      78  56  46 W14       29.74R
FARGO          FAIR      87  54  32 NW14      29.69S
WAHPETON ARPT  FAIR      86  45  23 NW8       29.73S
$$

 ***** WEATHER ACROSS CENTRAL AND WESTERN NORTH DAKOTA  *****

CITY           SKY/WX    TMP DP  RH WIND       PRES   REMARKS
BISMARCK       FAIR      81  57  43 SW3       29.78S
MINOT          FAIR      82  52  35 CALM      29.74F
JAMESTOWN      FAIR      81  58  45 MISG      29.75R
MINOT AFB      FAIR      80  53  38 NW5       29.73F
GARRISON         N/A     77  51  40 S6        29.76S
WILLISTON      FAIR      76  56  49 SW7       29.78R
DICKINSON      FAIR      82  47  29 S6        29.79F
HETTINGER      FAIR      81  52  36 S9        29.83S
$$

 *****  OTHER AIRPORT OBSERVATIONS IN OUR AREA  *****

CITY           SKY/WX    TMP DP  RH WIND       PRES   REMARKS
WALHALLA       FAIR      77  59  53 NW14G24   29.67F
GRAFTON AIRPOR FAIR      79  59  50 NW15G22   29.69S
VALLEY CITY AR FAIR      82  55  39 NW10      29.76S
CANDO          FAIR      79  55  44 W13G20    29.74S
CAVALIER APRT    N/A     79  57  47 W15G25    29.67S
GWINNER          N/A     86  54  32 NW6       29.74S
ROLLA          FAIR      75  54  46 W15G22    29.74R
 ***** THE ABOVE OBSERVATIONS ARE NON NWS ARE NOT QUALITY
       CONTROLLED AND MAY MIS-REPORT RAIN FOR SNOW...
$$

  *****  WEATHER ACROSS NORTHERN MINNESOTA  *****

CITY           SKY/WX    TMP DP  RH WIND       PRES   REMARKS
FLAG ISLAND    NOT AVBL
WARROAD        FAIR      75  64  69 NW9       29.66S
ROSEAU         FAIR      75  63  64 W10G16    29.66S
HALLOCK        FAIR      79  57  47 NW17G24   29.66R
THF RVR FALLS  FAIR      77  58  51 NW15      29.70R
BAUDETTE         N/A    N/A N/A N/A MISG      29.65R
WASKISH        FAIR      75  61  60 CALM      29.67S
CROOKSTON      FAIR      81  57  44 NW18      29.68S
STEPHEN NDAWN    N/A     81  55  41 NW16        N/A
GREENBUSH NDAW   N/A     75  61  60 W10         N/A
$$
  *****  WEATHER ACROSS CENTRAL AND WEST MINNESOTA  *****

CITY           SKY/WX    TMP DP  RH WIND       PRES   REMARKS
FOSSTON        FAIR      79  52  38 W14G23    29.70S
BEMIDJI        FAIR      81  55  40 W16       29.68S
PARK RAPIDS    FAIR      85  51  31 W20G28    29.71R
ELBOW LAKE     FAIR      84  54  35 NW6       29.74S
WADENA         FAIR      82  55  39 W12       29.72S
DETROIT LAKES  FAIR      82  50  32 W7G16     29.74S
MOORHEAD       FAIR      88  48  25 NW14G21   29.71S
FERGUS FALLS   FAIR      84  54  34 NW10      29.68S
MORRIS MN      FAIR      90  50  25 W8        29.73S
STAPLES        FAIR      88  46  23 W14       29.72R
$$
  *****  WEATHER ELSEWHERE ACROSS MINNESOTA  *****

CITY           SKY/WX    TMP DP  RH WIND       PRES   REMARKS
DULUTH         FAIR      85  58  39 W9        29.68S
INTRNTL FALLS  PTSUNNY   72  62  71 VRB3      29.65S
ELY            FAIR      75  54  46 NW7       29.67F
CLOQUET        FAIR      84  52  32 W7        29.68F
WHEATON        FAIR      86  52  30 W7        29.75R
BRAINERD       FAIR      87  52  29 W13       29.71S
HIBBING        FAIR      81  54  39 W8G16     29.67S
ALEXANDRIA     FAIR      88  55  32 W10       29.76R
SAINT CLOUD    FAIR      87  55  33 CALM      29.71S
MINNEAPOLIS    FAIR      84  64  50 VRB3      29.72S
$$

  *****  WEATHER ACROSS SOUTH DAKOTA  *****

CITY           SKY/WX    TMP DP  RH WIND       PRES   REMARKS
SIOUX FALLS    FAIR      85  60  42 NW8       29.80F
BROOKINGS      FAIR      85  56  37 W15       29.80R
WATERTOWN      FAIR      81  61  50 NW6       29.79S
HURON          FAIR      84  59  42 CALM      29.78F
SISSETON         N/A     90  52  27 NW12G21   29.73S
ABERDEEN       FAIR      88  53  30 SW5       29.77S
MITCHELL       FAIR      86  64  47 VRB3      29.80F
PIERRE         FAIR      81  60  48 CALM      29.79F
MOBRIDGE       FAIR      79  60  52 CALM      29.78S
RAPID CITY     FAIR      75  64  68 SE7       29.83F
$$

  *****  SOME WEATHER IN NEARBY STATES *****

CITY           SKY/WX    TMP DP  RH WIND       PRES   REMARKS
GLASGOW MT     FAIR      73  55  53 E7        29.76F
GREAT FALLS MT FAIR      71  52  50 SW12      29.81S
CHEYENNE WY    FAIR      80  27  14 W8        30.00F
SCOTTSBLUFF NE FAIR      77  59  53 SE6       29.87F
OMAHA NE       FAIR      90  65  43 N3        29.79S HX  92
DES MOINES IA  FAIR      84  70  62 CALM      29.77S
DAVENPORT IA   FAIR      80  66  62 VRB3      29.81F
CHICAGO IL     FAIR      81  62  52 W7        29.78F
EAU CLAIRE WI  FAIR      79  64  60 SW5       29.72F
LA CROSSE WI   FAIR      79  68  69 VRB6      29.75F
$$

  *****  SOME NATIONAL WEATHER *****

CITY           SKY/WX    TMP DP  RH WIND       PRES   REMARKS
LA GUARDIA NY  PTSUNNY   89  62  40 W10       29.80F
RALEIGH NC     PTSUNNY   77  71  82 SW12      29.99F
ATLANTA GA     PTSUNNY   78  69  73 VRB3      30.00S
NEW ORLEANS LA LGT RAIN  82  73  74 E10       29.90F
OKLAHOMA CITY  FAIR      81  66  60 SE3       29.87S
ALBUQUERQUE NM CLOUDY    68  24  19 N7        30.08S
SALT LAKE CITY SUNNY     76  24  14 S15       29.83F
LOS ANGELES CA PTSUNNY   62  51  67 S7        30.02R
BOISE ID       FAIR      63  52  67 NW14      29.88S
SEATTLE WA     PTSUNNY   55  44  66 S7        30.16R
$$

*** WEATHER ACROSS MANITOBA...SASKATCHEWAN AND ONTARIO ***
                ***ONTARIO***

CITY           SKY/WX    TMP DP  RH WIND       PRES   REMARKS
GERALDTON      CLOUDY    43  41  93 E14G20    29.81S
THUNDER BAY    PTSUNNY   63  59  88 E8        29.70R
SIOUX LOOKOUT  LGT RAIN  63  61  94 E3        29.64S
TORONTO        CLOUDY    77  59  53 SE7       29.80S
BIG TROUT LK   CLOUDY    45  34  65 SE12G20   29.85S
PICKLE LAKE    CLOUDY    45  43  93 E13       29.75F
DRYDEN         CLOUDY    64  61  88 E6        29.64S
KENORA         PTSUNNY   68  61  77 NW6       29.65R
$$
                *** MANITOBA***

CITY           SKY/WX    TMP DP  RH WIND       PRES   REMARKS
BRANDON        PTSUNNY   72  59  64 W16       29.70S
DAUPHIN        CLOUDY    63  59  88 N7        29.70S
ISLAND LAKE    LGT RAIN  48  46  93 E12       29.70F
PILOT MOUND      N/A     73  55  53 W13G18      N/A
THE PAS        CLOUDY    52  50  93 NW2       29.69S
THOMPSON       CLOUDY    45  37  76 E5        29.73S
WINNIPEG       MOSUNNY   70  61  73 NW10G17   29.67R
LYNN LAKE      CLOUDY    48  41  76 S8        29.69F
CHURCHILL      CLOUDY    36  30  80 S14       29.84F
GILLAM         PTSUNNY   45  34  65 SE9       29.79F
$$
                ***SASKATCHEWAN***

CITY           SKY/WX    TMP DP  RH WIND       PRES   REMARKS
ESTEVAN        PTSUNNY   77  54  44 CALM      29.76R
KINDERSLEY     PTSUNNY   70  48  46 SW14      29.65S
LLOYDMINSTER   CLOUDY    61  55  82 NW12G17   29.71R
PRINCE ALBERT  PTSUNNY   61  55  82 VRB2      29.71F
REGINA         PTSUNNY   73  55  53 S5        29.74S
YORKTON        CLOUDY    64  59  82 NW8       29.73S
N. BATTLEFORD  MOSUNNY   68  57  68 N15       29.69R
LA RONGE       PTSUNNY   57  54  88 SW6       29.71R
SASKATOON      MOSUNNY   73  57  56 E10       29.69F
SWIFT CURRENT  PTSUNNY   79  46  31 SW16      29.69F
$$
NOTE: THESE ARE AUTOMATED STATIONS WITH LIMITED QUALITY CONTROL
      "FAIR" INDICATES FEW OR NO CLOUDS BELOW 12,000 FEET WITH NO
      SIGNIFICANT WEATHER AND/OR OBSTRUCTIONS TO VISIBILITY.
      SKY/WX - SKY CONDITION AND SIGNIFICANT WEATHER.
      TMP - AIR TEMPERATURE.    DP   - DEWPOINT TEMPERATURE.
      RH  - RELATIVE HUMIDITY.  PRES - PRESSURE.
      HX  - HEAT INDEX.         WCI  - WIND CHILL INDEX.
$




USA.gov is the U.S. government's official web portal to all federal, state and local government web resources and services.